Temp
-16 -16 -16 -16 -15 -15 -15 -15 -14 -14 -14 -13 -13 -13 -13 -13 -13 -13 -13 -13 -12 -12 -12 -12 -12 -12 -12 -12 -12 -12 -12 -12 -12 -12 -12 -13 -13 -13 -13 -12 -13 -13 -13 -13 -13 -13 -12 -12 -12 -12 -12 -11 -11 -11 -11 -11 -11 -11 -11 -11 -11 -11 -11
-16 -16 -16 -16 -16 -15 -15 -15 -15 -14 -14 -14 -13 -13 -13 -13 -13 -13 -12 -12 -12 -12 -12 -12 -12 -12 -12 -12 -11 -11 -12 -12 -12 -12 -12 -13 -13 -12 -12 -12 -12 -13 -13 -13 -13 -13 -12 -12 -12 -12 -12 -11 -11 -11 -11 -11 -11 -11 -11 -11 -11 -11 -11
-16 -16 -16 -16 -16 -15 -15 -15 -15 -15 -15 -14 -14 -14 -13 -13 -13 -13 -12 -12 -12 -12 -12 -13 -13 -12 -12 -12 -11 -11 -12 -12 -12 -12 -12 -12 -12 -12 -12 -12 -12 -12 -13 -12 -12 -12 -12 -12 -11 -11 -12 -11 -11 -11 -11 -11 -11 -11 -11 -11 -11 -11 -11
-16 -16 -16 -16 -16 -15 -15 -15 -15 -15 -15 -15 -14 -14 -13 -13 -13 -13 -12 -12 -12 -12 -13 -13 -13 -13 -13 -12 -12 -12 -12 -12 -12 -12 -12 -12 -12 -12 -12 -12 -11 -12 -12 -12 -12 -12 -12 -11 -12 -12 -11 -11 -11 -11 -11 -11 -11 -11 -11 -11 -11 -11 -11
-16 -16 -16 -16 -16 -16 -15 -15 -15 -15 -15 -15 -15 -14 -14 -13 -13 -13 -12 -12 -12 -12 -13 -13 -13 -13 -13 -13 -13 -13 -13 -13 -13 -13 -12 -12 -12 -12 -12 -12 -11 -12 -12 -12 -12 -12 -12 -11 -12 -12 -11 -11 -11 -11 -11 -11 -11 -11 -12 -11 -11 -11 -11
-16 -16 -16 -16 -16 -16 -16 -15 -15 -15 -15 -16 -15 -15 -14 -14 -13 -13 -13 -13 -12 -12 -13 -13 -13 -13 -13 -13 -13 -13 -13 -13 -13 -13 -13 -12 -12 -12 -12 -12 -12 -12 -12 -12 -12 -12 -12 -12 -11 -12 -12 -11 -11 -11 -11 -11 -11 -11 -11 -11 -11 -11 -11
-16 -16 -16 -16 -16 -16 -16 -15 -15 -15 -15 -16 -15 -15 -15 -14 -13 -13 -13 -13 -12 -12 -13 -13 -13 -13 -12 -12 -13 -12 -12 -13 -13 -13 -13 -13 -13 -12 -12 -12 -12 -13 -13 -13 -12 -13 -13 -12 -12 -12 -12 -12 -12 -12 -12 -11 -11 -11 -11 -11 -11 -11 -11
-16 -16 -16 -16 -16 -16 -16 -16 -15 -15 -15 -16 -16 -15 -15 -15 -14 -14 -13 -13 -13 -12 -13 -13 -13 -13 -13 -12 -13 -13 -12 -12 -13 -12 -13 -13 -13 -13 -13 -12 -12 -13 -13 -13 -13 -13 -13 -12 -12 -12 -12 -12 -12 -12 -12 -11 -11 -11 -11 -11 -11 -11 -11
-16 -16 -16 -16 -16 -16 -16 -16 -16 -15 -15 -16 -16 -16 -15 -15 -14 -14 -14 -14 -13 -13 -13 -13 -13 -13 -13 -13 -13 -13 -12 -12 -12 -12 -13 -13 -13 -13 -13 -12 -12 -13 -13 -12 -12 -13 -13 -12 -12 -12 -12 -12 -12 -12 -12 -11 -11 -11 -11 -11 -11 -11 -11
-16 -16 -16 -16 -16 -16 -16 -16 -16 -16 -16 -16 -16 -16 -16 -15 -15 -14 -14 -14 -13 -13 -13 -13 -13 -13 -13 -13 -13 -13 -13 -12 -12 -12 -13 -13 -13 -13 -13 -13 -12 -13 -13 -12 -12 -13 -13 -12 -12 -12 -12 -12 -12 -12 -12 -12 -11 -12 -11 -11 -11 -11 -11
-16 -16 -16 -16 -16 -16 -16 -16 -16 -16 -16 -16 -16 -16 -16 -15 -15 -15 -14 -14 -14 -13 -13 -13 -13 -13 -13 -13 -13 -13 -13 -13 -13 -13 -13 -13 -13 -13 -13 -13 -12 -12 -13 -12 -13 -13 -12 -12 -12 -12 -12 -12 -12 -12 -12 -12 -12 -12 -12 -12 -11 -11 -11
-16 -16 -16 -16 -16 -16 -16 -16 -16 -16 -16 -16 -16 -16 -16 -15 -15 -15 -15 -14 -14 -14 -14 -14 -13 -13 -13 -13 -13 -13 -13 -13 -13 -13 -12 -13 -13 -13 -13 -13 -12 -12 -12 -12 -12 -12 -12 -12 -12 -12 -12 -12 -12 -12 -12 -12 -12 -12 -12 -12 -12 -11 -11
-16 -16 -16 -16 -16 -16 -16 -16 -16 -16 -16 -16 -16 -16 -15 -15 -15 -15 -15 -15 -14 -14 -13 -13 -13 -13 -13 -13 -13 -13 -13 -13 -13 -13 -13 -13 -13 -13 -13 -13 -12 -12 -12 -12 -12 -12 -12 -12 -12 -12 -12 -12 -12 -12 -12 -12 -12 -12 -12 -12 -12 -11 -11
-16 -16 -16 -16 -16 -16 -16 -16 -16 -16 -16 -16 -16 -16 -15 -15 -15 -15 -15 -15 -15 -14 -14 -14 -13 -13 -13 -13 -13 -13 -13 -13 -13 -13 -13 -13 -13 -13 -13 -13 -12 -12 -12 -12 -12 -12 -12 -12 -13 -12 -12 -12 -12 -12 -12 -12 -12 -12 -13 -12 -12 -12 -11
-16 -16 -16 -16 -16 -16 -16 -16 -16 -16 -16 -16 -16 -16 -15 -15 -15 -15 -15 -15 -15 -14 -14 -14 -14 -14 -14 -13 -13 -13 -13 -13 -13 -13 -13 -13 -13 -13 -13 -13 -13 -12 -12 -12 -12 -12 -13 -13 -13 -12 -12 -12 -12 -12 -12 -12 -12 -12 -13 -13 -12 -12 -11
-16 -16 -16 -16 -16 -16 -16 -16 -16 -16 -16 -16 -16 -16 -15 -15 -15 -15 -15 -15 -15 -15 -14 -14 -14 -14 -14 -14 -14 -14 -14 -13 -13 -14 -14 -14 -14 -13 -13 -13 -13 -13 -12 -13 -12 -12 -13 -13 -13 -13 -13 -12 -12 -12 -12 -12 -12 -12 -12 -13 -13 -12 -12
-16 -16 -16 -16 -16 -16 -16 -16 -16 -16 -16 -16 -16 -16 -15 -15 -15 -15 -15 -15 -15 -15 -15 -15 -15 -15 -14 -15 -14 -14 -14 -14 -14 -14 -14 -14 -14 -14 -13 -13 -13 -13 -13 -12 -13 -12 -12 -13 -13 -13 -13 -12 -12 -12 -12 -12 -12 -12 -12 -13 -13 -13 -12
-17 -16 -16 -16 -16 -16 -16 -16 -16 -16 -16 -16 -16 -16 -15 -15 -15 -15 -15 -15 -15 -15 -15 -15 -15 -15 -15 -15 -15 -14 -14 -14 -14 -14 -14 -14 -13 -13 -13 -13 -13 -13 -13 -13 -13 -12 -12 -12 -12 -12 -13 -13 -12 -12 -12 -12 -12 -12 -12 -12 -13 -13 -13
-17 -17 -17 -17 -16 -16 -16 -16 -16 -16 -16 -16 -16 -16 -16 -16 -16 -15 -15 -15 -15 -15 -15 -15 -15 -15 -15 -15 -15 -14 -14 -14 -14 -14 -14 -14 -13 -14 -14 -13 -13 -13 -13 -13 -13 -13 -12 -12 -12 -12 -13 -13 -12 -12 -12 -12 -12 -12 -12 -12 -13 -13 -13
-17 -17 -17 -17 -17 -17 -16 -16 -16 -16 -16 -16 -16 -16 -16 -16 -16 -16 -15 -15 -15 -15 -15 -15 -15 -15 -15 -15 -15 -15 -15 -15 -15 -15 -14 -14 -14 -14 -14 -14 -13 -13 -13 -13 -13 -13 -13 -13 -12 -12 -12 -13 -12 -12 -12 -12 -12 -12 -12 -12 -12 -13 -13
-17 -17 -17 -17 -17 -17 -17 -16 -16 -16 -16 -16 -16 -16 -16 -16 -16 -16 -16 -16 -16 -16 -16 -16 -16 -16 -15 -16 -15 -15 -15 -15 -15 -15 -15 -15 -15 -14 -14 -14 -14 -14 -13 -13 -13 -13 -13 -13 -13 -13 -13 -12 -12 -12 -12 -12 -12 -12 -12 -12 -12 -13 -13
-17 -17 -17 -17 -17 -17 -17 -17 -16 -16 -16 -16 -16 -16 -16 -16 -16 -16 -16 -17 -17 -17 -17 -17 -17 -17 -16 -16 -16 -16 -16 -16 -15 -15 -15 -15 -15 -15 -15 -14 -14 -14 -14 -14 -14 -13 -13 -13 -13 -13 -13 -13 -12 -12 -12 -12 -12 -12 -12 -12 -12 -13 -13
-17 -17 -17 -17 -17 -17 -17 -17 -17 -17 -17 -16 -16 -16 -16 -16 -17 -17 -17 -17 -18 -18 -18 -18 -18 -18 -18 -17 -17 -17 -17 -16 -16 -16 -16 -15 -15 -15 -15 -15 -14 -14 -14 -14 -14 -14 -14 -13 -13 -13 -13 -13 -13 -12 -13 -13 -13 -13 -13 -12 -13 -13 -13
-17 -17 -17 -17 -17 -17 -17 -17 -17 -17 -17 -17 -17 -17 -17 -17 -17 -17 -17 -18 -18 -19 -19 -19 -19 -19 -18 -18 -18 -18 -18 -17 -17 -17 -16 -16 -16 -15 -15 -15 -15 -15 -15 -14 -14 -14 -14 -14 -14 -13 -13 -13 -13 -13 -13 -13 -13 -13 -13 -13 -13 -13 -13
-17 -17 -17 -17 -17 -17 -17 -17 -17 -17 -17 -17 -17 -17 -17 -17 -17 -17 -18 -18 -19 -19 -19 -19 -19 -19 -19 -19 -19 -18 -18 -18 -18 -17 -17 -17 -16 -16 -16 -15 -15 -15 -15 -14 -14 -14 -14 -14 -14 -14 -13 -13 -13 -13 -13 -13 -13 -13 -13 -13 -13 -13 -13
-18 -18 -18 -18 -18 -18 -18 -18 -18 -18 -18 -18 -18 -18 -18 -18 -18 -18 -18 -18 -19 -19 -19 -19 -19 -19 -19 -19 -19 -18 -18 -18 -18 -18 -17 -17 -17 -17 -16 -16 -16 -15 -15 -15 -15 -15 -14 -14 -14 -14 -14 -14 -14 -13 -13 -13 -13 -13 -13 -13 -13 -13 -13
-18 -18 -18 -18 -18 -18 -18 -18 -18 -18 -18 -18 -18 -18 -18 -18 -18 -18 -18 -18 -19 -19 -19 -19 -19 -19 -19 -19 -19 -19 -18 -18 -18 -18 -18 -18 -18 -17 -17 -17 -17 -16 -15 -15 -15 -15 -15 -15 -14 -14 -14 -14 -14 -14 -14 -14 -14 -13 -13 -13 -13 -13 -13
-18 -18 -18 -18 -18 -18 -18 -18 -18 -18 -18 -18 -18 -18 -18 -18 -18 -18 -18 -18 -19 -19 -19 -19 -19 -19 -19 -19 -19 -19 -19 -18 -18 -18 -18 -18 -18 -18 -17 -17 -17 -17 -16 -16 -16 -16 -15 -15 -15 -15 -15 -15 -15 -14 -14 -14 -14 -14 -13 -13 -13 -13 -13
-18 -18 -18 -18 -18 -18 -18 -18 -18 -18 -18 -18 -18 -18 -18 -18 -18 -18 -18 -18 -18 -19 -19 -19 -19 -19 -19 -19 -19 -19 -19 -19 -18 -18 -18 -18 -18 -18 -18 -17 -17 -17 -17 -17 -17 -16 -16 -16 -16 -16 -15 -15 -15 -15 -15 -14 -14 -14 -14 -14 -13 -13 -13
-18 -18 -18 -18 -18 -18 -18 -18 -18 -18 -18 -18 -18 -18 -18 -18 -18 -18 -18 -18 -18 -18 -19 -19 -19 -19 -19 -19 -19 -19 -19 -19 -19 -18 -18 -18 -17 -17 -17 -17 -17 -17 -17 -17 -17 -16 -16 -16 -16 -16 -16 -16 -16 -16 -15 -15 -15 -14 -14 -14 -14 -14 -14
-18 -18 -18 -18 -18 -18 -18 -18 -18 -18 -18 -18 -18 -18 -18 -18 -18 -18 -18 -18 -18 -18 -18 -18 -19 -19 -19 -19 -19 -19 -19 -19 -19 -19 -19 -18 -18 -17 -17 -17 -17 -17 -17 -17 -17 -17 -16 -16 -16 -16 -16 -16 -16 -16 -16 -16 -15 -15 -15 -14 -14 -14 -14
-18 -18 -18 -18 -18 -18 -18 -18 -18 -18 -18 -18 -18 -18 -18 -18 -18 -18 -18 -18 -18 -18 -18 -18 -18 -18 -19 -19 -19 -19 -19 -19 -18 -18 -18 -18 -18 -18 -18 -18 -17 -17 -17 -17 -17 -17 -17 -16 -16 -16 -16 -16 -16 -16 -16 -16 -16 -16 -15 -15 -15 -14 -14
-18 -18 -18 -18 -18 -18 -18 -18 -18 -18 -18 -18 -18 -18 -18 -18 -18 -18 -18 -18 -18 -18 -18 -18 -18 -18 -18 -18 -18 -18 -18 -18 -18 -18 -18 -18 -18 -18 -18 -18 -18 -18 -18 -17 -17 -17 -17 -17 -16 -16 -16 -16 -16 -16 -16 -16 -16 -16 -16 -16 -15 -15 -15
-18 -18 -18 -18 -18 -18 -18 -18 -18 -18 -18 -18 -18 -18 -18 -18 -18 -18 -18 -18 -18 -18 -18 -18 -18 -18 -18 -18 -18 -18 -18 -18 -18 -18 -18 -18 -18 -18 -18 -18 -18 -18 -18 -18 -18 -17 -17 -17 -17 -17 -16 -16 -16 -16 -16 -16 -16 -16 -15 -15 -15 -15 -15
-18 -18 -18 -18 -18 -18 -18 -18 -18 -18 -18 -18 -18 -18 -18 -18 -18 -18 -18 -18 -18 -18 -18 -18 -18 -18 -18 -18 -18 -18 -18 -18 -18 -18 -18 -18 -18 -18 -18 -18 -18 -18 -18 -18 -18 -17 -17 -17 -17 -17 -17 -17 -16 -16 -16 -16 -16 -15 -15 -15 -15 -15 -15
-18 -18 -18 -18 -18 -18 -18 -18 -18 -18 -18 -18 -18 -18 -18 -18 -18 -18 -18 -18 -18 -18 -18 -18 -18 -18 -18 -18 -18 -18 -18 -18 -18 -18 -18 -18 -18 -18 -18 -18 -18 -18 -18 -18 -18 -18 -18 -17 -17 -17 -17 -17 -17 -17 -17 -16 -16 -16 -16 -15 -15 -15 -15
-18 -18 -18 -18 -18 -18 -18 -18 -18 -18 -18 -18 -18 -18 -18 -18 -18 -18 -18 -18 -18 -18 -18 -18 -18 -18 -18 -18 -18 -18 -18 -18 -18 -18 -18 -18 -18 -18 -18 -18 -18 -18 -18 -18 -18 -18 -18 -18 -18 -17 -17 -17 -17 -17 -17 -17 -17 -17 -16 -16 -16 -15 -15
Height
5770 5770 5770 5770 5771 5772 5772 5774 5775 5776 5778 5781 5783 5785 5788 5790 5792 5793 5795 5797 5798 5799 5799 5800 5800 5801 5801 5801 5802 5803 5805 5807 5808 5810 5811 5811 5813 5815 5814 5815 5816 5816 5816 5817 5818 5819 5821 5822 5822 5823 5824 5825 5826 5827 5827 5827 5828 5828 5828 5828 5827 5827 5828
5766 5766 5766 5766 5767 5768 5768 5770 5771 5772 5773 5776 5778 5780 5783 5786 5787 5789 5791 5793 5794 5794 5794 5795 5796 5796 5797 5797 5798 5799 5801 5803 5805 5807 5808 5809 5810 5811 5811 5812 5813 5813 5813 5814 5815 5816 5818 5819 5820 5821 5822 5823 5823 5824 5825 5825 5825 5826 5826 5826 5826 5826 5826
5762 5762 5762 5762 5763 5763 5765 5766 5767 5767 5769 5771 5773 5776 5778 5781 5782 5784 5786 5788 5790 5789 5789 5790 5790 5790 5792 5794 5794 5795 5797 5799 5801 5804 5805 5806 5806 5807 5807 5808 5810 5810 5810 5811 5813 5813 5814 5816 5817 5818 5819 5821 5821 5822 5823 5823 5823 5823 5823 5823 5823 5824 5824
5758 5758 5758 5758 5758 5759 5761 5762 5763 5764 5765 5766 5768 5771 5773 5776 5778 5780 5782 5783 5784 5784 5784 5785 5786 5786 5787 5789 5790 5791 5792 5794 5796 5799 5802 5802 5803 5803 5803 5804 5806 5807 5807 5809 5810 5809 5811 5814 5815 5816 5818 5818 5819 5820 5821 5821 5821 5821 5821 5821 5821 5821 5822
5754 5754 5754 5754 5754 5755 5756 5757 5759 5760 5761 5762 5763 5766 5768 5771 5773 5776 5777 5778 5779 5780 5780 5782 5783 5783 5784 5785 5785 5787 5788 5789 5790 5793 5796 5798 5798 5799 5799 5800 5802 5804 5804 5805 5806 5806 5809 5811 5813 5814 5815 5816 5817 5818 5819 5820 5819 5819 5818 5818 5819 5819 5820
5750 5750 5750 5750 5750 5751 5752 5753 5754 5756 5757 5758 5759 5761 5764 5766 5769 5771 5771 5773 5774 5775 5776 5777 5779 5781 5782 5782 5782 5783 5785 5787 5788 5788 5790 5793 5794 5795 5796 5796 5798 5800 5801 5802 5803 5803 5806 5808 5810 5810 5810 5812 5814 5815 5816 5817 5817 5817 5816 5816 5817 5817 5818
5746 5747 5747 5746 5747 5747 5747 5748 5750 5751 5753 5754 5755 5757 5759 5762 5764 5765 5766 5768 5770 5770 5771 5773 5775 5778 5779 5779 5779 5780 5782 5783 5785 5785 5785 5788 5790 5791 5792 5793 5795 5796 5797 5798 5799 5801 5802 5804 5806 5806 5807 5809 5811 5810 5812 5814 5814 5814 5814 5814 5814 5815 5815
5742 5743 5743 5743 5743 5743 5743 5744 5745 5747 5749 5750 5751 5753 5755 5757 5759 5760 5762 5764 5765 5766 5767 5769 5772 5774 5776 5776 5776 5777 5777 5778 5779 5780 5782 5784 5786 5787 5788 5789 5791 5792 5793 5794 5796 5797 5799 5800 5802 5804 5804 5806 5807 5807 5809 5810 5811 5811 5811 5811 5812 5812 5813
5739 5739 5740 5740 5740 5740 5740 5741 5741 5743 5744 5746 5748 5749 5751 5752 5754 5756 5758 5759 5761 5762 5763 5766 5768 5770 5771 5772 5772 5772 5773 5773 5773 5775 5778 5780 5782 5782 5783 5785 5787 5789 5790 5791 5792 5794 5795 5796 5799 5801 5801 5802 5804 5805 5806 5806 5807 5808 5808 5809 5809 5810 5811
5736 5736 5736 5737 5737 5737 5737 5738 5738 5739 5740 5742 5744 5745 5747 5748 5750 5752 5754 5756 5757 5758 5759 5761 5764 5766 5767 5767 5768 5769 5769 5769 5769 5771 5773 5775 5777 5777 5779 5781 5783 5785 5787 5788 5789 5790 5792 5793 5794 5796 5797 5798 5799 5802 5803 5803 5803 5804 5804 5805 5806 5807 5808
5733 5734 5734 5734 5734 5734 5734 5735 5735 5736 5737 5738 5740 5742 5743 5744 5746 5748 5750 5752 5753 5754 5756 5757 5759 5762 5762 5763 5764 5765 5765 5765 5766 5767 5768 5770 5772 5773 5774 5776 5778 5781 5783 5784 5785 5786 5788 5789 5791 5792 5793 5794 5795 5797 5798 5799 5800 5801 5801 5802 5802 5803 5805
5731 5731 5731 5731 5731 5731 5732 5732 5733 5733 5734 5735 5736 5738 5739 5741 5742 5744 5746 5748 5749 5750 5751 5753 5755 5757 5758 5760 5761 5761 5762 5763 5763 5764 5764 5765 5768 5769 5770 5772 5774 5776 5778 5780 5781 5782 5784 5785 5787 5788 5789 5791 5792 5794 5794 5795 5796 5797 5797 5798 5799 5800 5801
5728 5728 5728 5729 5729 5729 5730 5730 5731 5731 5731 5732 5733 5734 5736 5737 5738 5739 5741 5743 5745 5745 5747 5749 5751 5753 5754 5756 5758 5759 5760 5760 5760 5761 5761 5762 5763 5764 5766 5768 5769 5771 5773 5775 5776 5777 5778 5780 5782 5784 5785 5787 5789 5791 5791 5792 5793 5794 5793 5793 5795 5796 5797
5726 5726 5726 5727 5727 5727 5728 5728 5729 5729 5729 5730 5730 5731 5732 5733 5734 5736 5737 5739 5741 5742 5743 5745 5747 5750 5751 5753 5754 5755 5756 5755 5755 5756 5756 5758 5759 5760 5761 5763 5764 5766 5768 5770 5771 5772 5773 5774 5776 5779 5780 5782 5785 5787 5788 5789 5790 5791 5790 5789 5791 5792 5793
5724 5724 5724 5725 5725 5725 5726 5726 5726 5727 5727 5728 5728 5729 5729 5730 5732 5733 5734 5735 5737 5739 5740 5741 5742 5745 5747 5748 5749 5749 5749 5749 5749 5749 5750 5752 5753 5754 5756 5758 5760 5761 5762 5763 5764 5766 5768 5769 5771 5773 5775 5777 5780 5783 5785 5786 5787 5787 5787 5786 5787 5788 5789
5722 5722 5722 5722 5723 5723 5723 5723 5724 5724 5725 5725 5726 5726 5726 5727 5729 5729 5730 5731 5732 5733 5735 5735 5735 5738 5741 5742 5742 5742 5742 5743 5743 5743 5744 5744 5745 5747 5749 5751 5753 5755 5756 5757 5758 5760 5763 5765 5766 5768 5770 5772 5775 5778 5781 5782 5783 5784 5784 5783 5783 5784 5785
5719 5719 5720 5720 5720 5720 5720 5721 5721 5721 5722 5722 5722 5722 5722 5722 5723 5723 5723 5723 5724 5725 5726 5727 5728 5730 5732 5733 5733 5734 5734 5735 5735 5737 5739 5739 5740 5742 5744 5746 5748 5749 5751 5752 5754 5756 5758 5760 5761 5763 5765 5768 5769 5772 5775 5777 5779 5780 5780 5780 5780 5780 5781
5717 5717 5717 5717 5717 5717 5717 5718 5718 5718 5718 5718 5718 5718 5718 5717 5717 5717 5717 5717 5718 5718 5719 5720 5722 5724 5724 5725 5727 5727 5727 5728 5730 5732 5734 5734 5735 5737 5740 5743 5744 5745 5746 5747 5749 5751 5753 5754 5756 5759 5761 5762 5764 5767 5769 5771 5773 5774 5775 5776 5776 5776 5776
5715 5715 5714 5714 5714 5714 5714 5715 5715 5715 5715 5714 5714 5714 5714 5713 5713 5712 5712 5712 5712 5712 5713 5714 5716 5717 5717 5720 5722 5722 5722 5723 5726 5728 5729 5730 5730 5732 5735 5737 5738 5738 5741 5742 5743 5745 5747 5748 5751 5753 5755 5757 5759 5761 5763 5765 5767 5769 5770 5771 5772 5771 5771
5712 5712 5712 5711 5711 5711 5711 5711 5711 5711 5711 5711 5710 5710 5710 5709 5708 5707 5706 5706 5705 5705 5706 5707 5709 5710 5711 5713 5715 5716 5716 5718 5720 5721 5722 5723 5724 5727 5729 5731 5733 5735 5738 5739 5739 5741 5742 5743 5745 5747 5749 5750 5751 5753 5756 5760 5762 5764 5765 5766 5767 5767 5767
5710 5710 5710 5709 5709 5709 5708 5708 5708 5707 5707 5707 5706 5706 5705 5705 5703 5702 5701 5700 5699 5699 5699 5700 5701 5703 5705 5706 5708 5709 5710 5712 5713 5713 5713 5715 5718 5721 5724 5726 5728 5730 5732 5732 5733 5735 5737 5737 5739 5741 5742 5743 5743 5745 5749 5753 5755 5758 5760 5760 5761 5762 5762
5708 5708 5707 5707 5707 5706 5706 5705 5704 5704 5703 5702 5702 5701 5701 5700 5699 5698 5696 5694 5693 5693 5693 5693 5694 5696 5697 5699 5701 5703 5704 5706 5707 5708 5709 5711 5713 5715 5718 5720 5721 5722 5723 5723 5725 5727 5729 5730 5731 5734 5736 5736 5737 5738 5740 5744 5746 5749 5752 5753 5754 5756 5757
5707 5706 5705 5705 5704 5704 5703 5703 5702 5701 5700 5699 5698 5697 5697 5696 5695 5693 5691 5690 5688 5687 5687 5687 5688 5689 5690 5692 5694 5696 5698 5700 5701 5702 5703 5705 5707 5709 5711 5713 5714 5715 5716 5717 5719 5720 5720 5722 5724 5726 5727 5728 5730 5730 5732 5735 5737 5739 5742 5744 5748 5750 5751
5705 5705 5704 5703 5702 5702 5701 5700 5699 5699 5698 5696 5695 5694 5693 5692 5691 5690 5688 5686 5684 5684 5683 5683 5683 5684 5685 5686 5688 5689 5691 5693 5694 5696 5697 5699 5701 5702 5704 5706 5707 5708 5709 5711 5713 5714 5714 5715 5717 5718 5719 5720 5722 5723 5724 5727 5729 5731 5733 5735 5738 5741 5742
5704 5703 5702 5701 5701 5700 5699 5698 5697 5696 5695 5694 5693 5692 5691 5690 5689 5687 5686 5684 5682 5681 5681 5680 5680 5680 5681 5681 5683 5684 5685 5687 5689 5690 5692 5693 5695 5696 5698 5699 5700 5700 5703 5706 5707 5708 5709 5710 5711 5712 5713 5714 5715 5716 5718 5719 5722 5725 5726 5726 5729 5732 5735
5702 5702 5701 5700 5699 5698 5697 5696 5696 5695 5694 5693 5692 5691 5690 5688 5687 5685 5684 5682 5681 5680 5679 5678 5678 5678 5678 5678 5679 5680 5680 5682 5683 5685 5687 5688 5689 5690 5692 5693 5693 5694 5697 5700 5700 5701 5703 5705 5706 5707 5708 5708 5709 5710 5711 5713 5715 5717 5718 5719 5721 5725 5728
5701 5700 5699 5698 5697 5696 5696 5695 5694 5693 5692 5691 5690 5689 5688 5687 5685 5684 5682 5681 5680 5678 5677 5677 5676 5675 5675 5675 5675 5676 5676 5677 5678 5680 5681 5682 5683 5685 5686 5687 5688 5688 5691 5693 5693 5694 5697 5698 5699 5701 5702 5702 5703 5704 5705 5706 5707 5709 5711 5713 5715 5718 5721
5699 5698 5697 5697 5696 5695 5694 5693 5692 5691 5690 5689 5688 5687 5686 5685 5684 5683 5681 5679 5678 5677 5676 5675 5674 5673 5673 5672 5672 5672 5672 5673 5673 5675 5676 5677 5678 5679 5680 5681 5682 5683 5685 5687 5687 5688 5690 5691 5692 5693 5694 5696 5697 5698 5698 5699 5700 5702 5703 5705 5708 5711 5714
5697 5696 5695 5695 5694 5693 5692 5692 5691 5690 5689 5688 5687 5686 5684 5683 5682 5681 5680 5678 5677 5675 5674 5673 5672 5672 5671 5670 5669 5669 5669 5669 5669 5669 5671 5672 5673 5674 5675 5676 5677 5678 5680 5681 5682 5683 5684 5685 5686 5687 5688 5689 5690 5691 5692 5692 5693 5695 5697 5698 5701 5703 5706
5695 5694 5694 5693 5692 5691 5691 5690 5689 5688 5687 5686 5685 5684 5683 5682 5681 5679 5678 5677 5675 5674 5673 5671 5670 5669 5668 5667 5667 5666 5666 5666 5665 5665 5665 5666 5667 5668 5669 5670 5671 5672 5674 5675 5676 5677 5678 5679 5680 5681 5681 5682 5683 5684 5684 5685 5686 5689 5691 5692 5694 5696 5698
5693 5692 5692 5691 5690 5690 5689 5688 5687 5686 5685 5684 5683 5682 5681 5680 5679 5678 5676 5675 5674 5673 5671 5670 5668 5667 5666 5665 5664 5663 5663 5662 5662 5662 5661 5661 5661 5662 5663 5664 5665 5666 5667 5668 5669 5671 5672 5673 5674 5674 5675 5676 5677 5678 5678 5679 5681 5682 5683 5685 5687 5689 5691
5691 5690 5690 5689 5688 5688 5687 5686 5685 5684 5683 5682 5681 5680 5679 5678 5677 5676 5674 5673 5672 5671 5670 5668 5667 5665 5664 5663 5662 5661 5660 5659 5659 5658 5658 5657 5657 5657 5657 5658 5659 5660 5660 5661 5662 5663 5664 5666 5667 5668 5668 5669 5670 5671 5671 5673 5674 5675 5676 5677 5679 5681 5683
5689 5688 5688 5687 5686 5686 5685 5684 5683 5682 5681 5680 5678 5677 5676 5675 5674 5673 5672 5671 5670 5669 5667 5666 5665 5663 5662 5661 5659 5658 5657 5656 5655 5654 5653 5653 5652 5652 5652 5652 5653 5653 5653 5654 5655 5655 5656 5658 5659 5660 5661 5662 5663 5664 5665 5666 5667 5667 5669 5671 5672 5673 5675
5687 5686 5686 5685 5684 5684 5683 5682 5681 5680 5679 5678 5676 5675 5674 5673 5672 5671 5669 5668 5667 5666 5665 5663 5662 5661 5660 5658 5657 5655 5654 5653 5652 5650 5649 5648 5647 5647 5646 5646 5647 5647 5647 5647 5648 5648 5648 5649 5650 5651 5652 5654 5654 5655 5657 5659 5659 5660 5661 5663 5664 5666 5667
5685 5684 5684 5683 5682 5682 5681 5680 5679 5678 5677 5676 5674 5673 5672 5671 5669 5668 5667 5665 5664 5663 5661 5660 5659 5657 5656 5655 5653 5652 5651 5650 5648 5646 5645 5643 5642 5641 5641 5640 5640 5640 5640 5640 5640 5641 5641 5641 5641 5642 5643 5645 5646 5647 5648 5650 5651 5652 5653 5654 5656 5658 5659
5683 5683 5682 5681 5681 5680 5679 5678 5677 5676 5675 5673 5672 5671 5670 5668 5667 5665 5664 5662 5661 5659 5658 5656 5655 5653 5652 5650 5649 5648 5646 5645 5643 5642 5640 5639 5637 5636 5635 5634 5634 5633 5633 5633 5633 5633 5633 5633 5633 5634 5635 5636 5637 5637 5638 5640 5642 5643 5645 5645 5647 5649 5651
5682 5681 5680 5680 5679 5678 5677 5676 5675 5674 5672 5671 5669 5668 5667 5665 5664 5662 5660 5659 5657 5656 5654 5652 5650 5648 5647 5645 5643 5642 5640 5639 5637 5636 5634 5633 5632 5631 5629 5628 5627 5626 5626 5625 5625 5625 5625 5625 5625 5626 5626 5626 5627 5628 5629 5630 5632 5634 5635 5636 5638 5639 5641
Wind_Speed
36 36 36 36 37 38 39 41 43 44 45 46 45 43 41 41 41 39 37 35 33 33 34 34 33 33 34 36 38 38 38 38 38 36 35 34 31 30 32 32 29 27 29 32 33 31 26 23 22 21 20 20 20 20 21 21 19 17 17 17 16 16 15
34 36 37 37 37 37 38 39 40 42 44 45 45 44 42 42 42 40 38 36 34 35 36 35 33 32 32 34 36 37 37 38 38 37 36 35 33 33 35 35 32 29 30 32 34 33 29 26 24 22 21 21 21 21 22 22 20 18 18 18 18 17 16
31 33 35 37 37 37 37 38 38 39 41 43 44 44 43 43 43 41 40 38 37 37 38 38 35 33 33 34 34 35 37 38 38 37 36 36 36 36 37 37 34 31 31 32 34 34 31 28 24 22 21 23 23 22 22 23 21 19 19 19 18 17 16
30 31 33 35 37 38 37 37 38 37 38 41 43 43 43 44 43 42 41 40 39 39 40 39 36 35 35 34 34 35 38 40 39 38 38 38 38 38 39 39 36 33 33 33 34 36 33 29 25 24 24 24 24 23 22 23 22 20 19 20 19 18 17
28 29 31 32 34 36 37 37 37 37 37 38 41 42 42 44 44 42 42 42 41 41 41 40 39 37 35 34 35 37 40 42 41 40 41 41 40 41 41 41 37 34 35 35 36 37 34 30 26 26 27 25 24 24 24 24 23 20 20 21 20 19 17
26 27 28 30 31 33 36 36 37 37 36 37 39 41 41 43 43 43 43 43 42 43 42 41 40 39 36 35 37 39 40 42 42 41 42 43 43 43 42 41 38 35 36 36 37 37 35 33 30 29 29 27 26 24 24 26 25 22 22 22 22 20 18
25 25 26 28 29 31 33 35 36 37 36 37 38 39 40 41 43 43 44 43 43 44 44 41 39 39 37 35 36 39 39 40 41 43 44 43 43 43 42 41 38 35 35 36 37 38 37 36 35 33 32 30 29 26 25 27 26 24 23 23 23 22 19
24 24 24 26 27 29 31 32 34 36 36 37 37 39 39 40 42 43 44 43 43 45 45 42 40 39 37 34 34 37 38 38 39 42 45 43 40 42 43 42 39 36 35 36 38 39 38 38 37 34 33 32 31 30 29 28 27 25 25 24 25 23 21
22 23 23 24 26 28 29 30 31 33 35 36 37 38 38 39 41 43 44 44 44 46 46 44 42 39 39 36 33 35 37 38 38 38 42 43 41 42 45 44 40 36 35 37 39 39 39 39 38 36 36 35 33 32 31 29 28 27 26 25 26 25 23
20 21 22 23 24 26 28 29 29 30 33 35 36 37 38 38 39 41 44 45 45 46 46 45 43 41 41 40 37 35 35 36 37 37 39 44 44 44 45 43 39 36 34 36 39 40 40 40 40 40 40 38 35 32 32 31 29 29 29 27 26 26 24
17 19 21 22 24 26 27 27 27 28 29 32 34 36 37 38 38 39 42 44 47 48 47 46 44 42 44 44 41 39 36 36 37 36 38 42 43 44 44 43 40 37 35 35 38 41 41 41 41 42 42 40 37 35 34 33 31 31 31 29 28 28 26
16 17 18 19 21 23 24 25 26 26 26 28 30 32 34 36 37 38 39 42 46 49 49 48 46 45 45 45 44 41 39 39 37 35 36 39 41 42 43 43 42 39 37 36 37 40 42 42 42 42 43 42 40 38 36 35 33 32 33 32 31 30 28
15 15 15 15 16 18 20 22 23 24 25 25 26 28 31 33 34 36 37 39 43 47 50 50 48 48 47 47 46 43 40 40 39 36 36 38 40 42 43 43 42 40 40 39 39 39 41 43 43 43 44 44 42 40 38 37 35 33 34 35 33 32 31
15 15 15 15 15 15 17 18 20 21 23 24 25 26 28 30 32 34 36 38 41 44 48 50 49 48 47 47 47 45 43 42 41 38 38 39 39 40 42 43 42 41 40 40 40 40 41 44 45 45 45 46 44 42 41 39 37 35 36 37 36 34 33
16 16 16 16 16 16 17 18 19 21 22 23 25 26 28 30 31 33 35 37 40 42 45 49 50 48 47 47 48 49 48 46 42 40 40 40 40 41 41 42 42 42 40 40 41 41 41 43 47 47 46 47 46 44 43 42 39 37 36 38 38 37 36
16 17 17 17 18 18 19 20 21 21 22 23 25 27 29 30 31 33 34 35 38 41 44 46 48 46 45 46 48 51 52 50 48 45 43 42 41 41 41 42 43 44 42 42 42 42 42 44 47 48 47 47 48 46 45 44 42 39 38 39 40 40 39
16 17 17 18 19 20 21 22 22 23 24 24 25 26 27 28 29 31 33 34 37 40 43 45 46 46 44 43 44 47 50 52 52 50 46 44 44 43 43 43 44 45 44 44 44 43 43 46 48 49 48 47 48 48 47 47 45 43 41 40 41 42 41
17 18 19 20 21 22 23 23 24 24 25 26 26 26 26 26 27 29 32 35 37 39 42 45 47 49 50 48 46 47 49 51 53 52 51 49 48 47 46 43 44 45 46 47 47 45 45 47 48 48 48 49 50 50 50 50 48 47 45 42 42 43 44
18 19 20 21 22 23 23 24 24 24 24 24 24 24 24 25 27 28 31 35 37 40 44 46 47 50 52 53 52 51 51 51 51 51 53 54 52 50 48 47 46 46 47 48 49 48 47 48 48 48 49 51 51 51 52 53 52 50 49 47 45 45 45
18 19 20 21 22 22 22 23 23 23 22 22 22 22 22 23 25 28 31 34 36 40 44 47 49 51 53 54 55 55 55 55 53 51 51 55 55 52 50 51 49 46 45 46 49 50 50 50 50 49 50 52 53 53 52 53 54 52 52 51 49 48 48
16 17 18 19 20 20 21 21 21 20 20 19 19 20 20 21 23 26 30 33 35 37 42 46 50 53 54 55 56 57 58 58 58 58 56 54 54 52 52 53 52 47 45 46 47 49 51 52 51 51 51 52 54 56 54 54 55 55 54 54 52 51 51
13 14 16 17 18 18 18 18 18 17 17 17 17 17 18 20 22 25 28 30 32 33 36 41 47 51 54 56 57 58 58 59 60 61 61 58 55 53 52 53 55 51 48 48 46 45 47 52 52 51 52 54 54 55 56 57 57 56 56 58 55 53 53
12 12 13 14 15 16 16 16 16 16 16 16 16 17 18 19 21 24 26 27 28 28 29 34 41 46 50 53 55 56 57 58 59 60 61 60 59 58 54 53 54 54 53 52 48 41 40 45 49 49 50 53 54 54 57 58 59 56 56 58 58 56 55
11 11 12 12 12 13 14 14 15 15 15 16 17 18 19 20 21 23 24 24 24 26 27 29 34 40 44 48 51 53 54 55 57 58 59 59 60 61 60 58 57 56 55 55 53 48 42 42 44 45 46 48 50 52 55 57 60 58 55 57 59 59 59
11 11 11 11 11 12 12 13 13 14 15 16 17 18 19 20 21 22 23 22 22 23 26 28 31 35 39 42 45 48 51 52 54 56 57 57 58 60 62 63 63 62 59 56 56 56 52 48 46 45 46 47 49 51 53 55 57 58 57 58 59 59 60
11 11 11 11 11 11 11 12 12 13 14 15 16 17 18 19 20 21 22 21 21 21 23 27 30 33 35 37 40 43 45 47 50 52 54 55 56 57 59 62 64 66 64 60 58 58 57 54 52 47 44 46 49 51 53 54 55 56 58 59 59 59 60
12 12 12 12 12 12 12 12 12 13 13 14 15 16 16 17 18 20 21 21 21 21 22 24 27 30 32 34 35 38 40 42 44 47 50 52 53 54 55 57 60 63 65 63 62 61 59 57 56 53 48 46 46 48 51 52 54 55 57 59 59 59 60
12 13 13 13 13 13 14 14 14 14 14 15 15 15 16 16 17 18 19 20 20 21 22 22 24 26 29 30 32 34 36 37 38 41 44 48 50 51 52 53 56 59 62 62 60 62 62 60 59 58 56 53 51 50 49 50 52 55 57 60 60 59 60
13 13 14 14 14 15 15 15 16 16 16 16 16 17 17 17 17 17 18 19 19 20 21 22 23 24 25 27 28 31 33 35 36 37 39 42 46 48 49 50 52 54 57 58 58 60 62 62 61 61 60 59 58 57 55 54 54 54 56 58 60 61 61
14 15 15 15 15 16 16 16 16 17 17 17 17 18 18 18 18 18 18 19 19 20 20 21 22 23 24 25 26 27 29 32 35 37 38 39 41 44 46 48 49 51 53 54 55 57 59 60 61 62 62 62 61 61 60 60 59 58 57 57 57 57 59
15 15 15 16 16 16 16 17 17 17 17 17 18 18 18 18 19 19 19 20 20 20 21 21 21 22 23 25 26 26 27 29 31 34 37 38 40 42 44 45 47 49 51 52 53 54 56 58 59 60 61 62 62 63 63 63 63 62 62 61 60 58 58
14 14 14 15 15 16 16 16 17 17 18 18 19 19 20 20 20 20 21 21 21 21 22 22 22 23 23 24 25 27 28 29 30 32 34 37 39 41 43 44 46 48 49 51 52 53 54 56 57 59 60 61 61 62 63 64 65 65 65 66 65 65 63
13 13 13 14 14 15 15 16 17 17 18 19 20 20 21 21 22 23 23 23 23 23 24 24 24 24 25 25 25 26 27 29 30 32 34 36 38 40 41 43 45 47 49 50 52 53 54 54 56 57 59 60 60 60 61 63 65 66 66 66 67 68 68
12 12 13 13 14 15 16 16 17 18 18 19 20 20 21 22 22 23 24 25 25 26 26 26 26 27 27 27 28 28 28 29 30 32 34 36 38 40 42 43 44 46 48 49 51 53 54 55 56 57 58 60 60 60 60 61 63 65 67 67 67 68 68
11 12 13 14 15 16 16 17 17 18 19 19 21 22 22 23 24 25 26 27 27 28 28 29 29 30 30 30 30 31 31 32 32 33 34 36 37 39 41 43 44 46 47 49 51 52 53 55 56 57 58 59 60 60 60 60 61 62 65 66 67 68 69
11 12 13 14 15 16 16 17 18 19 20 21 22 23 24 25 25 26 27 28 29 30 31 32 32 33 33 33 34 34 35 35 36 36 37 38 38 39 40 41 43 44 46 48 49 51 53 54 55 56 56 57 59 60 60 61 60 61 63 64 66 68 69
12 13 13 14 15 16 17 18 19 20 21 22 23 24 25 26 27 28 29 30 31 33 34 35 36 37 37 37 37 37 38 38 39 40 40 41 41 42 42 43 44 44 45 46 47 49 51 52 53 54 55 55 57 57 58 59 60 60 61 63 64 66 67
Wind_Direction
261 260 259 257 253 250 248 246 245 244 243 241 241 240 241 243 246 248 250 250 252 253 254 256 259 259 260 259 249 243 241 238 236 237 237 240 241 244 250 253 255 260 259 251 248 249 246 245 248 252 253 247 244 250 255 256 254 254 253 251 251 251 253
262 259 259 258 256 253 250 248 245 244 243 241 240 239 238 240 243 245 246 248 248 250 251 253 255 254 256 258 249 239 237 237 238 239 239 241 244 246 250 254 255 257 261 255 248 247 246 240 239 241 245 247 247 248 252 254 254 251 251 250 249 250 252
265 261 258 257 256 254 252 250 248 246 245 242 240 238 236 237 240 242 244 245 245 247 250 251 253 253 252 255 248 238 235 236 239 240 241 243 246 249 252 254 255 256 260 257 248 245 243 238 238 239 240 247 250 250 250 252 251 250 251 252 250 249 250
265 263 260 257 256 255 253 252 250 248 247 245 242 238 236 236 238 240 242 243 243 244 247 249 254 254 250 249 246 240 235 234 237 241 242 244 245 249 252 254 255 256 259 257 248 244 241 237 238 240 239 242 247 250 251 252 251 249 250 251 250 247 246
261 262 261 259 257 255 254 253 252 250 249 248 245 240 236 235 236 238 240 242 242 244 245 247 252 254 251 247 245 243 239 236 236 239 241 244 245 247 251 254 255 255 258 256 247 242 240 236 236 240 241 240 242 246 249 250 252 251 248 248 248 246 244
256 257 259 259 258 257 255 253 252 251 249 249 248 244 239 236 235 237 238 240 242 243 245 246 248 252 254 250 244 242 244 243 241 240 239 241 244 246 249 252 254 255 258 256 247 241 239 235 233 237 240 239 240 245 246 246 249 249 247 246 246 245 242
253 252 255 256 256 257 256 254 252 251 250 250 249 247 243 238 236 236 237 239 240 243 245 246 247 249 253 255 247 242 247 249 247 246 243 240 241 245 247 249 252 254 257 255 245 241 240 236 232 233 236 236 237 245 248 246 246 247 247 246 245 243 240
250 250 253 254 254 254 255 255 253 252 251 250 251 250 247 242 238 237 238 238 239 241 244 245 245 246 251 256 250 244 247 250 250 249 246 243 241 242 244 245 247 251 255 253 246 241 240 239 236 236 238 236 237 243 245 244 245 246 246 246 245 243 239
249 248 251 254 254 254 254 255 254 252 251 250 251 252 250 247 241 238 238 238 238 240 242 243 244 245 248 251 249 246 246 250 252 249 246 245 243 242 242 243 244 247 252 253 247 242 240 240 238 237 238 236 236 241 243 242 243 245 245 245 246 244 240
250 249 251 252 253 253 253 254 255 254 252 250 250 252 253 252 247 242 240 239 239 240 241 242 242 243 244 246 248 249 250 252 253 251 248 246 245 244 242 241 241 243 248 251 248 244 242 242 239 237 238 235 234 238 241 241 242 243 243 244 245 244 241
254 253 253 252 251 252 252 252 254 256 256 254 252 252 253 255 253 249 244 241 240 240 241 241 241 241 242 244 247 248 250 253 253 253 251 247 245 245 242 241 240 239 242 248 249 246 244 244 242 240 240 239 236 235 237 239 240 242 242 242 243 244 242
262 259 257 255 252 251 251 251 252 254 255 255 254 254 254 255 256 254 250 246 242 241 241 241 240 240 242 244 247 247 249 251 252 254 251 246 244 243 242 243 241 238 239 244 248 249 247 245 244 242 241 242 241 238 237 238 239 242 243 242 242 242 242
261 259 257 255 253 250 250 250 251 252 253 254 255 254 254 254 255 255 254 250 247 244 243 242 240 240 241 243 246 248 249 250 251 253 249 244 243 243 243 243 242 240 240 242 245 248 248 245 243 243 242 242 242 241 239 239 239 241 243 244 242 242 243
255 254 253 252 252 251 252 252 253 254 255 256 256 257 257 256 255 255 254 253 250 247 246 246 245 243 242 242 244 245 247 248 249 248 245 244 245 244 243 243 242 241 242 244 247 247 247 244 240 242 243 242 242 241 240 240 238 238 243 245 245 244 244
257 255 255 255 256 257 259 261 261 261 261 261 262 262 263 263 261 260 259 256 254 251 248 248 249 248 245 244 244 243 244 245 246 245 244 245 246 245 245 243 242 243 243 245 248 247 246 244 239 240 243 243 242 241 241 241 239 238 241 245 247 246 245
259 259 259 260 261 263 265 267 269 270 269 269 269 268 268 268 267 265 263 260 256 253 250 250 251 251 248 247 247 247 245 244 243 243 245 247 245 244 245 243 241 242 242 242 246 246 245 245 242 240 241 243 243 242 241 241 240 239 240 243 246 248 247
260 262 262 264 265 266 267 269 272 274 275 274 273 271 270 269 267 264 262 259 256 252 249 248 248 246 244 244 245 246 245 244 243 242 244 248 247 244 243 243 242 243 242 241 244 246 245 245 244 242 241 243 244 243 241 240 240 239 239 241 244 247 248
263 264 266 267 268 268 269 271 273 275 275 275 274 273 274 273 270 268 265 261 257 253 250 248 246 245 243 242 243 243 244 245 244 243 244 246 247 244 243 244 244 245 245 242 243 245 245 246 245 244 243 243 244 245 243 241 239 238 238 239 241 245 248
268 268 268 269 270 271 272 274 275 275 274 274 274 275 276 276 275 274 271 266 261 255 252 249 247 245 244 243 242 243 244 244 243 245 246 245 245 245 243 242 243 245 245 244 243 243 245 246 245 244 245 245 245 245 244 243 241 239 238 238 239 241 244
272 270 270 270 271 273 275 277 277 276 275 276 276 277 279 281 282 281 277 272 266 258 253 250 247 245 245 244 242 242 243 243 241 243 245 244 243 244 243 240 241 245 246 245 246 246 246 247 247 246 247 247 245 245 246 246 244 242 240 239 238 239 241
277 274 271 271 272 274 277 279 280 281 281 281 282 284 286 290 293 292 287 280 271 262 254 250 248 246 245 245 245 244 244 243 242 242 244 245 243 244 243 240 240 244 247 246 246 248 249 250 249 248 249 248 245 244 245 246 246 245 243 240 239 239 240
287 282 277 275 274 276 279 282 285 288 290 292 294 297 299 300 303 303 299 289 277 268 259 252 249 247 246 245 245 245 244 244 244 244 246 246 243 243 244 242 241 244 246 245 245 247 251 251 250 249 248 247 245 244 243 243 243 244 244 243 241 241 240
298 294 290 287 284 284 286 288 291 295 298 301 304 306 307 309 311 311 308 297 283 275 268 258 253 250 248 246 246 246 245 245 245 246 247 247 244 244 244 242 243 244 245 245 244 246 249 249 247 247 246 245 246 245 242 242 242 242 243 244 243 242 241
309 306 303 301 299 296 295 296 298 300 302 306 308 310 311 313 314 315 313 303 288 277 272 265 259 255 253 250 248 248 247 246 245 246 247 248 247 246 245 244 244 245 245 244 243 244 246 246 243 242 241 242 246 245 242 242 242 241 243 244 243 241 241
318 316 314 313 311 309 308 306 306 306 308 309 311 312 313 313 315 315 312 306 294 280 272 266 262 259 257 255 253 251 251 249 248 247 248 249 249 248 248 248 248 247 245 244 244 244 246 247 244 241 240 240 242 243 242 242 242 242 242 243 242 241 241
320 319 319 320 320 320 319 316 315 315 314 315 314 313 314 314 313 312 310 306 298 287 277 270 265 262 259 257 256 256 256 255 253 251 250 251 251 250 250 251 252 251 249 247 247 246 246 246 244 242 240 239 240 241 242 244 244 243 243 243 243 242 241
319 319 320 322 323 325 325 324 324 323 321 321 320 318 317 315 313 311 308 304 299 291 284 276 271 267 263 260 257 256 257 258 258 256 254 254 254 254 253 253 254 254 253 253 254 252 250 249 248 246 244 242 240 240 241 243 244 244 244 244 245 244 242
316 317 319 322 323 325 326 327 327 328 327 327 326 324 323 320 318 314 310 306 301 295 288 282 277 273 270 267 263 259 257 256 257 258 258 257 256 256 256 256 257 257 257 258 259 258 257 257 256 254 252 251 248 245 243 242 243 244 245 245 246 246 244
312 315 318 320 323 324 325 326 326 327 327 327 327 327 326 325 323 320 316 311 307 302 297 291 286 281 277 273 270 266 262 258 255 255 257 258 259 258 258 258 258 259 259 260 262 261 260 261 261 260 259 258 257 255 252 248 245 244 244 245 246 247 246
309 313 315 318 320 322 323 324 324 324 324 324 325 325 324 324 324 323 321 318 314 310 306 301 296 290 286 282 277 273 270 265 261 257 255 255 256 258 258 258 259 260 260 261 262 262 261 262 262 262 262 262 261 260 259 256 252 249 247 247 247 248 248
306 309 312 315 318 320 322 322 323 323 323 323 323 322 322 321 321 321 320 319 318 316 313 309 305 300 295 291 286 282 277 273 269 265 261 257 255 255 255 256 257 259 260 261 262 262 262 262 262 262 263 263 262 262 261 261 259 257 255 253 251 251 251
304 308 311 314 318 320 322 323 323 324 325 325 325 324 323 323 322 321 320 319 317 316 314 312 310 306 303 298 293 289 285 280 276 272 269 265 262 259 256 255 255 256 257 258 260 261 261 262 263 263 263 263 263 263 262 261 261 261 260 258 257 255 254
307 311 314 317 320 323 324 325 326 327 327 327 326 325 325 325 324 323 322 320 319 317 315 313 310 307 305 302 298 294 290 286 281 278 274 271 269 266 263 260 258 257 256 256 257 257 258 258 259 260 262 263 263 263 263 262 262 261 260 260 260 258 257
311 315 319 322 324 326 327 328 328 328 328 327 327 327 327 327 326 325 323 322 320 319 316 314 311 308 305 302 299 296 292 289 286 282 278 275 273 270 268 266 264 262 260 259 258 258 258 257 257 257 258 259 260 261 261 262 262 262 261 260 260 259 259
316 320 323 325 326 327 328 328 328 329 329 329 329 329 330 329 328 326 325 324 322 320 318 315 313 310 307 303 300 297 294 291 287 284 281 279 276 274 272 270 268 266 264 262 261 260 259 259 259 258 258 257 257 257 257 258 258 260 260 261 260 260 259
320 322 324 326 327 328 328 329 329 330 330 331 331 330 330 329 328 326 325 325 323 321 319 317 315 312 308 305 302 298 295 291 288 285 282 280 278 276 274 273 271 269 267 266 264 263 262 261 260 260 259 259 258 257 256 256 255 255 256 258 259 259 259
321 323 324 325 326 327 327 328 330 331 331 331 331 330 330 330 329 329 328 327 326 325 323 320 318 314 310 307 302 298 295 291 288 285 282 280 278 276 275 274 272 271 270 268 267 265 264 263 262 261 260 260 259 258 258 257 256 254 254 254 255 256 258